Location: Zihuatanejo
(17.6330°N, 101.5500°W)
Time: 07:31:50
(UTC-05:00)

Envisat - Visible Passes

Search period start: 20 October 2019 00:00
Search period end: 30 October 2019 00:00
Orbit: 764 x 766 km, 98.1° (Epoch: 20 October)

Date Brightness Start Highest point End Pass type
(mag) Time Alt. Az. Time Alt. Az. Time Alt. Az.
20 Oct 4.7 20:44:28 10° SSW 20:49:01 34° W 20:53:35 10° NW visible
21 Oct 3.0 20:07:13 10° SSE 20:12:18 87° ENE 20:17:22 10° N visible
22 Oct 5.8 21:11:23 10° SW 21:14:33 17° W 21:17:46 10° WNW visible
23 Oct 4.1 20:32:55 10° S 20:37:46 45° W 20:42:36 10° NNW visible
24 Oct 6.8 07:18:37 10° ENE 07:20:17 11° E 07:21:56 10° ESE visible
24 Oct 3.0 19:56:03 10° SSE 20:01:03 65° ENE 20:06:05 10° N visible
25 Oct 5.4 20:59:22 10° SSW 21:03:16 23° W 21:07:12 10° NW visible
26 Oct 3.5 20:21:30 10° S 20:26:30 62° WSW 20:31:30 10° NNW visible
27 Oct 3.2 19:44:58 10° SSE 19:49:50 48° ENE 19:54:41 10° N visible
27 Oct 6.3 21:27:47 10° WSW 21:28:50 11° W 21:29:53 10° W visible
28 Oct 4.9 20:47:35 10° SSW 20:52:00 30° W 20:56:25 10° NW visible
29 Oct 3.0 20:10:11 10° S 20:15:15 84° W 20:20:20 10° NNW visible
